TimeMST,TemperatureF,Dew PointF,Humidity,Sea Level PressureIn,VisibilityMPH,Wind Direction,Wind SpeedMPH,Gust SpeedMPH,PrecipitationIn,Events,Conditions,WindDirDegrees,DateUTC
12:53 AM,51.1,12.9,22,29.83,10.0,SW,3.5,-,N/A,,Clear,230,2013-03-27 07:53:00
1:53 AM,52.0,14.0,22,29.83,10.0,Calm,Calm,-,N/A,,Clear,0,2013-03-27 08:53:00
2:53 AM,48.0,15.1,27,29.83,10.0,Calm,Calm,-,N/A,,Clear,0,2013-03-27 09:53:00
3:53 AM,48.0,17.1,29,29.83,10.0,Calm,Calm,-,N/A,,Clear,0,2013-03-27 10:53:00
4:53 AM,46.9,16.0,29,29.85,10.0,West,3.5,-,N/A,,Clear,270,2013-03-27 11:53:00
5:53 AM,43.0,17.1,35,29.87,10.0,Calm,Calm,-,N/A,,Clear,0,2013-03-27 12:53:00
6:53 AM,44.1,18.0,35,29.91,10.0,Calm,Calm,-,N/A,,Clear,0,2013-03-27 13:53:00
7:53 AM,51.1,17.1,26,29.91,10.0,NW,3.5,-,N/A,,Clear,310,2013-03-27 14:53:00
8:53 AM,53.1,16.0,23,29.92,10.0,WNW,4.6,-,N/A,,Clear,300,2013-03-27 15:53:00
9:53 AM,57.0,18.0,22,29.91,10.0,North,8.1,-,N/A,,Clear,350,2013-03-27 16:53:00
10:53 AM,59.0,17.1,20,29.91,10.0,North,3.5,-,N/A,,Clear,350,2013-03-27 17:53:00
11:53 AM,63.0,18.0,18,29.89,10.0,North,6.9,-,N/A,,Clear,10,2013-03-27 18:53:00
12:53 PM,66.9,18.0,15,29.86,10.0,NNE,5.8,-,N/A,,Clear,30,2013-03-27 19:53:00
1:53 PM,68.0,15.1,13,29.83,10.0,NNE,8.1,-,N/A,,Clear,20,2013-03-27 20:53:00
2:53 PM,71.1,14.0,11,29.81,7.0,NE,9.2,-,N/A,,Clear,40,2013-03-27 21:53:00
3:53 PM,73.0,14.0,11,29.79,10.0,NNE,10.4,-,N/A,,Clear,30,2013-03-27 22:53:00
4:53 PM,72.0,12.0,10,29.79,10.0,North,10.4,-,N/A,,Clear,10,2013-03-27 23:53:00
5:53 PM,70.0,10.9,10,29.81,10.0,NNE,5.8,-,N/A,,Clear,30,2013-03-28 00:53:00
6:53 PM,66.0,12.0,12,29.82,10.0,ENE,3.5,-,N/A,,Clear,60,2013-03-28 01:53:00
7:53 PM,63.0,12.9,14,29.83,10.0,SSE,6.9,-,N/A,,Clear,160,2013-03-28 02:53:00
8:53 PM,61.0,14.0,16,29.84,10.0,WSW,4.6,-,N/A,,Clear,240,2013-03-28 03:53:00
9:53 PM,63.0,12.0,14,29.85,10.0,SW,5.8,-,N/A,,Clear,230,2013-03-28 04:53:00
10:53 PM,61.0,12.0,15,29.86,10.0,SW,5.8,-,N/A,,Clear,220,2013-03-28 05:53:00
11:53 PM,57.9,14.0,18,29.88,10.0,SSW,5.8,-,N/A,,Clear,200,2013-03-28 06:53:00